[[{"header":{"parameterUnit":"m.s-1","parameterCategory":1,"la1":30.2991,"la2":30.254,"lo1":-89.0895,"lo2":-89.0444,"dy":0.0017,"dx":0.0017,"nx":28,"ny":28,"refTime":"2024-07-01T03:00:00:Z","depth":0,"parameterNumber":2,"parameterNumberName":"U-component_of_WINDS"},"data":[0,0,0,0,0,0,0,0,0,0,0,0,0,0,0,0,0,0,0,0,0,0,0,0,0,0,0,0,0,0,0,0,0,0,0,0,0,0,0,0,0,0,0,0,0,0,0,0,0,0,0,0,0,0,0,0,0,0,0.0196,0.0195,0,0.0171,0.0171,0.0171,0.0123,0.0122,0.0122,0.0121,0.0098,0.0098,0.0099,0,0,0,0,0,0,0,0,0,0,0,0,0,0.0204,0.0204,0.0196,0.0195,0.0195,0.0172,0.0171,0.0171,0.0124,0.0122,0.0121,0.012,0.0098,0.0098,0.0099,0,0,0,0,0,0,0,0,0,0,0,0,0,0.0192,0.0204,0.0196,0.0169,0.0166,0.0172,0.0171,0.0171,0.0124,0.0122,0.0121,0.012,0.0098,0.0098,0.0099,0.013,0,0,0.01,0.01,0,0,0,0,0,0,0,0,0.0193,0.0192,0.0173,0.017,0.0167,0.0149,0.0166,0.0157,0.0124,0.014,0.0121,0.0119,0.0116,0.0115,0.0114,0.0129,0.0128,0.01,0.01,0.01,0.0101,0,0,0,0,0,0,0,0.0194,0.0193,0.0186,0.0173,0.0169,0.0159,0.0155,0.0164,0.0136,0.0138,0.0135,0.0133,0.0115,0.0114,0.0113,0.0127,0.01,0.01,0.0101,0.0101,0.0169,0.017,0,0,0,0,0,0,0.0198,0.0193,0.0187,0.0185,0.0177,0.016,0.0156,0.0156,0.0136,0.0132,0.0134,0.013,0.0113,0.0112,0.0112,0.0149,0.01,0.0101,0.0101,0.0167,0.0169,0.0171,0,0,0,0,0,0,0.0198,0.0198,0.0188,0.0188,0.0186,0.0161,0.0162,0.0157,0.0155,0.0133,0.0128,0.0138,0.0112,0.0111,0.0126,0.0147,0.0101,0.0101,0.0165,0.0168,0.017,0.0222,0,0,0,0,0,0,0.0199,0.0198,0.0209,0.0189,0.0186,0.0202,0.0163,0.0157,0.0156,0.0151,0.0135,0.0131,0.0111,0.0126,0.0126,0.0147,0.0102,0.0163,0.0166,0.0169,0.0218,0.0225,0.0232,0,0,0,0,0,0.0199,0.0224,0.021,0.0209,0.0199,0.0203,0.0202,0.0178,0.0158,0.0169,0.0155,0.0131,0.0144,0.0127,0.0128,0.0149,0.0162,0.0165,0.0169,0.0215,0.0224,0.0232,0,0,0,0,0,0,0.0248,0.0221,0.0205,0.0224,0.0216,0.0195,0.0208,0.0188,0.0186,0.0182,0.0153,0.0149,0.0169,0.016,0.0142,0.0179,0.0149,0.0153,0.0184,0.0193,0.02,0.0202,0.0102,0,0,0,0,0,0.0261,0.0265,0.0242,0.0261,0.0258,0.0234,0.0235,0.0217,0.0208,0.0204,0.0191,0.0184,0.0186,0.0189,0.0189,0.0216,0.0213,0.0231,0.0238,0.0243,0.0248,0.0263,0.0272,0.0182,0.0182,0.0182,0,0,0.0288,0.0274,0.0279,0.0271,0.0263,0.0269,0.0232,0.0239,0.0244,0.0206,0.0219,0.0209,0.0199,0.0221,0.0229,0.0214,0.0272,0.0248,0.0253,0.0254,0.0268,0.0277,0.0284,0.0184,0.0184,0.0184,0,0,0.0341,0.033,0.0346,0.0338,0.0326,0.031,0.0314,0.0296,0.0288,0.0301,0.0273,0.0278,0.0283,0.0277,0.0275,0.0328,0.0307,0.0329,0.0366,0.0382,0.0389,0.0395,0.0416,0.0424,0.0332,0.0333,0.0333,0,0.0377,0.0384,0.0357,0.0367,0.0366,0.033,0.0348,0.0342,0.0331,0.0331,0.0314,0.032,0.031,0.0331,0.0344,0.0342,0.0348,0.0331,0.039,0.0396,0.0401,0.0421,0.0429,0.0335,0.0335,0.0335,0.0335,0,0.043,0.0436,0.045,0.0441,0.0441,0.0454,0.043,0.0433,0.0416,0.0402,0.0417,0.0404,0.0403,0.0406,0.0389,0.0425,0.0416,0.0395,0.0365,0.0413,0.0431,0.0439,0.034,0.0339,0.0338,0.0337,0,0,0.0514,0.049,0.0496,0.0492,0.0476,0.0481,0.0493,0.0492,0.0496,0.049,0.0501,0.0506,0.0486,0.0484,0.0466,0.0479,0.0525,0.0456,0.0456,0.0472,0.0567,0.0586,0.0595,0.051,0.0511,0.0512,0.0569,0,0.0566,0.0586,0.0562,0.0587,0.0594,0.0561,0.0572,0.0564,0.0552,0.0556,0.0542,0.0548,0.052,0.0519,0.053,0.0517,0.0544,0.0512,0.0523,0.0523,0.0529,0.0604,0.0623,0.0677,0.0576,0.0577,0.0577,0,0.0629,0.0626,0.0652,0.0636,0.0638,0.0649,0.0646,0.065,0.0642,0.0632,0.063,0.0608,0.0621,0.059,0.0609,0.0588,0.059,0.0585,0.0586,0.0588,0.0555,0.0611,0.0693,0.0702,0.0588,0.0587,0.0586,0,0.0691,0.0693,0.071,0.0707,0.0688,0.0697,0.069,0.0679,0.0681,0.0679,0.068,0.0679,0.068,0.068,0.066,0.0639,0.0682,0.0649,0.0676,0.0677,0.0689,0.0689,0.0776,0.0686,0.0686,0.0686,0.0686,0,0.0753,0.0771,0.0738,0.0749,0.0769,0.0741,0.0762,0.0751,0.0742,0.0751,0.0722,0.0731,0.0702,0.0709,0.0692,0.0712,0.0712,0.0706,0.0702,0.071,0.0711,0.0713,0.071,0.0688,0.0688,0.0687,0.0687,0,0.0827,0.0805,0.0822,0.0802,0.0798,0.0814,0.0798,0.0808,0.0793,0.0805,0.0806,0.0784,0.0791,0.0769,0.0772,0.0761,0.0791,0.0779,0.0794,0.0792,0.0821,0.082,0.0915,0.0927,0.0827,0.0828,0.0829,0,0.0869,0.0883,0.0865,0.0869,0.0863,0.0869,0.087,0.0843,0.0846,0.0838,0.0849,0.0853,0.0855,0.0867,0.0852,0.0855,0.0845,0.0878,0.0845,0.0854,0.0849,0.085,0.0852,0.0886,0.0887,0.0888,0.0888,0,0.0948,0.0936,0.0939,0.0938,0.094,0.0938,0.0934,0.0939,0.0911,0.0916,0.0922,0.0923,0.0926,0.0932,0.0931,0.0925,0.0903,0.0898,0.0906,0.0916,0.0925,0.0923,0.0816,0.0897,0.0896,0.0896,0.0895,0.0895,0.1009,0.102,0.101,0.1014,0.1008,0.1006,0.1015,0.1001,0.1005,0.1006,0.099,0.1,0.0992,0.0989,0.0985,0.0994,0.0979,0.0988,0.0991,0.0994,0.1001,0.0921,0.0993,0.0993,0.0992,0.0992,0.0992,0,0.1088,0.108,0.1084,0.108,0.1083,0.1061,0.1056,0.1061,0.107,0.1064,0.1067,0.1075,0.108,0.1065,0.1068,0.1078,0.1069,0.108,0.1081,0.1081,0.1012,0.1008,0.1088,0.1088,0.1088,0.1088,0.1088,0.1088,0.113,0.1148,0.1136,0.1152,0.1144,0.1153,0.1152,0.1151,0.1146,0.1156,0.116,0.115,0.1142,0.1144,0.1149,0.1144,0.1148,0.1164,0.1157,0.1094,0.1085,0.1076,0.1071,0.1164,0.1164,0.1224,0.1225,0.1225]},{"header":{"parameterUnit":"m.s-1","parameterCategory":1,"la1":30.2991,"la2":30.254,"lo1":-89.0895,"lo2":-89.0444,"dy":0.0017,"dx":0.0017,"nx":28,"ny":28,"refTime":"2024-07-01T03:00:00:Z","depth":0,"parameterNumber":3,"parameterNumberName":"V-component_of_WINDS"},"data":[0,0,0,0,0,0,0,0,0,0,0,0,0,0,0,0,0,0,0,0,0,0,0,0,0,0,0,0,0,0,0,0,0,0,0,0,0,0,0,0,0,0,0,0,0,0,0,0,0,0,0,0,0,0,0,0,0,0,-1.9176,-1.9177,0,-1.9213,-1.9213,-1.9214,-1.9207,-1.9207,-1.9206,-1.9206,-1.9241,-1.9242,-1.9244,0,0,0,0,0,0,0,0,0,0,0,0,0,-1.9099,-1.91,-1.9176,-1.9177,-1.9177,-1.9213,-1.9213,-1.9214,-1.9207,-1.9207,-1.9206,-1.9205,-1.924,-1.9242,-1.9244,0,0,0,0,0,0,0,0,0,0,0,0,0,-1.9133,-1.9101,-1.9176,-1.9178,-1.9179,-1.9213,-1.9213,-1.9214,-1.9208,-1.9207,-1.9206,-1.9205,-1.924,-1.9242,-1.9244,-1.9277,0,0,-1.9251,-1.9252,0,0,0,0,0,0,0,0,-1.9131,-1.9136,-1.9178,-1.9178,-1.9179,-1.9205,-1.9199,-1.9235,-1.9208,-1.9197,-1.9205,-1.9204,-1.9229,-1.9232,-1.9241,-1.9279,-1.928,-1.9251,-1.9253,-1.9254,-1.9254,0,0,0,0,0,0,0,-1.9129,-1.9135,-1.9191,-1.9178,-1.9179,-1.9177,-1.9181,-1.9206,-1.9218,-1.9198,-1.9197,-1.9202,-1.9229,-1.9239,-1.9242,-1.9281,-1.9251,-1.9253,-1.9255,-1.9255,-1.9346,-1.9347,0,0,0,0,0,0,-1.9126,-1.9133,-1.9189,-1.9192,-1.9153,-1.9179,-1.9183,-1.9197,-1.9217,-1.922,-1.9203,-1.9201,-1.9236,-1.9239,-1.9243,-1.9283,-1.9254,-1.9256,-1.9257,-1.9345,-1.9347,-1.9348,0,0,0,0,0,0,-1.9125,-1.9131,-1.9188,-1.9162,-1.9169,-1.9181,-1.9197,-1.9199,-1.9208,-1.9221,-1.9223,-1.921,-1.9235,-1.924,-1.9269,-1.9284,-1.9257,-1.9259,-1.9344,-1.9346,-1.9347,-1.9362,0,0,0,0,0,0,-1.9123,-1.9131,-1.9144,-1.9163,-1.9171,-1.9214,-1.9198,-1.92,-1.9212,-1.9211,-1.9229,-1.9231,-1.9235,-1.9265,-1.9271,-1.9287,-1.9261,-1.9343,-1.9345,-1.9347,-1.9361,-1.9364,-1.9367,0,0,0,0,0,-1.912,-1.9147,-1.9145,-1.9152,-1.9188,-1.9215,-1.9219,-1.9223,-1.9214,-1.9227,-1.9235,-1.923,-1.9281,-1.9268,-1.9275,-1.9291,-1.9342,-1.9344,-1.9346,-1.9359,-1.9364,-1.9367,0,0,0,0,0,0,-1.9129,-1.9149,-1.9147,-1.9181,-1.9196,-1.9214,-1.923,-1.9228,-1.9246,-1.9244,-1.9248,-1.9252,-1.9281,-1.9289,-1.9274,-1.9324,-1.931,-1.9314,-1.9317,-1.9322,-1.9325,-1.9322,-1.9262,0,0,0,0,0,-1.9135,-1.9156,-1.9172,-1.92,-1.9208,-1.9218,-1.923,-1.9232,-1.9247,-1.9253,-1.9264,-1.9278,-1.9298,-1.931,-1.9329,-1.9362,-1.9365,-1.9376,-1.938,-1.9382,-1.9385,-1.9403,-1.9408,-1.9355,-1.9355,-1.9355,0,0,-1.9148,-1.9161,-1.9174,-1.9203,-1.9215,-1.9236,-1.9223,-1.9246,-1.9261,-1.9257,-1.9285,-1.9293,-1.9309,-1.934,-1.9354,-1.9348,-1.9401,-1.9385,-1.9387,-1.9389,-1.9406,-1.9411,-1.9415,-1.9357,-1.9357,-1.9356,0,0,-1.9181,-1.9194,-1.9219,-1.9231,-1.925,-1.9256,-1.9262,-1.9279,-1.9285,-1.9313,-1.931,-1.9328,-1.9361,-1.9373,-1.9383,-1.9421,-1.9417,-1.9426,-1.9444,-1.9461,-1.9465,-1.9469,-1.9482,-1.9487,-1.943,-1.943,-1.943,0,-1.9194,-1.9227,-1.9231,-1.9255,-1.9267,-1.9264,-1.9289,-1.93,-1.9324,-1.9332,-1.9324,-1.9366,-1.9377,-1.941,-1.9419,-1.9428,-1.9434,-1.9424,-1.9465,-1.9468,-1.9472,-1.9484,-1.9489,-1.9431,-1.943,-1.943,-1.943,0,-1.9241,-1.9264,-1.9281,-1.9305,-1.9319,-1.9343,-1.935,-1.9364,-1.9365,-1.9371,-1.94,-1.9413,-1.9434,-1.9442,-1.9442,-1.9475,-1.947,-1.9464,-1.945,-1.9478,-1.9489,-1.9494,-1.9432,-1.9432,-1.9431,-1.9431,0,0,-1.9282,-1.9308,-1.9314,-1.9324,-1.9344,-1.9361,-1.9384,-1.9406,-1.9417,-1.9433,-1.9452,-1.948,-1.9474,-1.9486,-1.9488,-1.9503,-1.9531,-1.9494,-1.9494,-1.95,-1.9567,-1.9571,-1.9577,-1.9529,-1.953,-1.953,-1.9565,0,-1.9317,-1.9359,-1.9364,-1.9401,-1.9421,-1.9419,-1.9439,-1.9453,-1.946,-1.9477,-1.9484,-1.9504,-1.9495,-1.9502,-1.9517,-1.9524,-1.9544,-1.9522,-1.9546,-1.9546,-1.9541,-1.9583,-1.9588,-1.962,-1.957,-1.9571,-1.9571,0,-1.9363,-1.9381,-1.9421,-1.9438,-1.9446,-1.9464,-1.9484,-1.9501,-1.9517,-1.952,-1.9533,-1.9533,-1.9556,-1.9542,-1.9573,-1.9558,-1.9568,-1.9573,-1.9574,-1.9576,-1.956,-1.9586,-1.9631,-1.9635,-1.9579,-1.9578,-1.9578,0,-1.9388,-1.9422,-1.945,-1.9459,-1.948,-1.9492,-1.9501,-1.9516,-1.9528,-1.9545,-1.9553,-1.9572,-1.9582,-1.9596,-1.9601,-1.959,-1.9632,-1.9618,-1.9635,-1.9635,-1.9643,-1.9643,-1.969,-1.9651,-1.9651,-1.9651,-1.965,0,-1.9427,-1.9451,-1.9461,-1.9478,-1.9505,-1.951,-1.9536,-1.9544,-1.9557,-1.9575,-1.9574,-1.9591,-1.9596,-1.9613,-1.9617,-1.9642,-1.9647,-1.965,-1.965,-1.965,-1.9649,-1.9656,-1.9653,-1.9652,-1.9652,-1.9651,-1.9651,0,-1.9459,-1.9467,-1.9497,-1.9515,-1.9519,-1.9538,-1.9552,-1.9568,-1.9575,-1.9597,-1.9603,-1.9613,-1.9633,-1.964,-1.9664,-1.9666,-1.9695,-1.9694,-1.969,-1.969,-1.9706,-1.9705,-1.976,-1.9767,-1.9723,-1.9723,-1.9724,0,-1.9483,-1.9501,-1.9521,-1.9533,-1.9543,-1.9562,-1.9575,-1.958,-1.9593,-1.9612,-1.9626,-1.9646,-1.9663,-1.9695,-1.9704,-1.9722,-1.9721,-1.9739,-1.9724,-1.9722,-1.9721,-1.9719,-1.9721,-1.9742,-1.9742,-1.9743,-1.9743,0,-1.9524,-1.9527,-1.9546,-1.9566,-1.9581,-1.9597,-1.9612,-1.9622,-1.963,-1.9644,-1.9665,-1.9678,-1.9703,-1.9723,-1.9741,-1.975,-1.9747,-1.9748,-1.9752,-1.9752,-1.9748,-1.975,-1.9698,-1.9746,-1.9746,-1.9746,-1.9745,-1.9745,-1.9552,-1.9568,-1.9585,-1.9605,-1.9617,-1.9631,-1.9647,-1.9656,-1.9674,-1.9695,-1.9697,-1.972,-1.9734,-1.9759,-1.9768,-1.9785,-1.978,-1.9787,-1.9789,-1.979,-1.9791,-1.9746,-1.9789,-1.9789,-1.9789,-1.9788,-1.9788,0,-1.9593,-1.9603,-1.9622,-1.9644,-1.966,-1.9657,-1.9674,-1.9687,-1.9707,-1.9721,-1.9738,-1.9761,-1.978,-1.9791,-1.981,-1.9821,-1.9821,-1.9826,-1.9825,-1.9827,-1.9795,-1.9789,-1.9826,-1.9826,-1.9826,-1.9826,-1.9826,-1.9826,-1.9616,-1.9643,-1.9648,-1.968,-1.969,-1.9713,-1.9723,-1.9735,-1.9747,-1.9774,-1.979,-1.9797,-1.9809,-1.9829,-1.9846,-1.9848,-1.9855,-1.9861,-1.9863,-1.9833,-1.9829,-1.9825,-1.9819,-1.9862,-1.9862,-1.9893,-1.9893,-1.9893]}]]